TimeCST,TemperatureF,Dew PointF,Humidity,Sea Level PressureIn,VisibilityMPH,Wind Direction,Wind SpeedMPH,Gust SpeedMPH,PrecipitationIn,Events,Conditions,WindDirDegrees,DateUTC
12:15 AM,22.8,19.2,86,30.38,7.0,Calm,Calm,-,N/A,,Clear,0,2013-01-05 06:15:00
12:35 AM,-9999,-9999,N/A,30.38,7.0,Calm,Calm,-,N/A,,Clear,0,2013-01-05 06:35:00
12:55 AM,-9999,-9999,N/A,30.38,7.0,Calm,Calm,-,N/A,,Clear,0,2013-01-05 06:55:00
1:15 AM,-9999,-9999,N/A,30.38,7.0,Calm,Calm,-,N/A,,Clear,0,2013-01-05 07:15:00
1:35 AM,21.9,17.1,82,30.38,7.0,Calm,Calm,-,N/A,,Clear,0,2013-01-05 07:35:00
1:55 AM,-9999,-9999,N/A,30.38,7.0,Calm,Calm,-,N/A,,Clear,0,2013-01-05 07:55:00
2:15 AM,-9999,-9999,N/A,30.38,7.0,Calm,Calm,-,N/A,,Clear,0,2013-01-05 08:15:00
2:35 AM,-9999,-9999,N/A,30.38,7.0,Calm,Calm,-,N/A,,Clear,0,2013-01-05 08:35:00
2:55 AM,21.4,17.8,86,30.38,7.0,Calm,Calm,-,N/A,,Clear,0,2013-01-05 08:55:00
3:15 AM,20.7,16.3,83,30.39,7.0,Calm,Calm,-,N/A,,Clear,0,2013-01-05 09:15:00
3:35 AM,-9999,-9999,N/A,30.39,7.0,Calm,Calm,-,N/A,,Clear,0,2013-01-05 09:35:00
3:55 AM,-9999,-9999,N/A,30.39,7.0,Calm,Calm,-,N/A,,Clear,0,2013-01-05 09:55:00
4:15 AM,-9999,-9999,N/A,30.40,7.0,Calm,Calm,-,N/A,,Clear,0,2013-01-05 10:15:00
4:35 AM,-9999,-9999,N/A,30.40,7.0,Calm,Calm,-,N/A,,Clear,0,2013-01-05 10:35:00
4:55 AM,-9999,-9999,N/A,30.39,7.0,Calm,Calm,-,N/A,,Clear,0,2013-01-05 10:55:00
5:15 AM,19.9,16.2,85,30.39,7.0,Calm,Calm,-,N/A,,Clear,0,2013-01-05 11:15:00
5:55 AM,20.1,16.3,85,30.39,7.0,Calm,Calm,-,N/A,,Clear,0,2013-01-05 11:55:00
6:15 AM,19.8,16.2,86,30.40,7.0,Calm,Calm,-,N/A,,Clear,0,2013-01-05 12:15:00
6:35 AM,-9999,-9999,N/A,30.39,7.0,Calm,Calm,-,N/A,,Clear,0,2013-01-05 12:35:00
7:15 AM,19.8,16.2,86,30.39,7.0,Calm,Calm,-,N/A,,Clear,0,2013-01-05 13:15:00
7:35 AM,20.1,15.6,83,30.40,10.0,Calm,Calm,-,N/A,,Clear,0,2013-01-05 13:35:00
7:55 AM,21.4,17.2,84,30.40,7.0,Calm,Calm,-,N/A,,Clear,0,2013-01-05 13:55:00
8:15 AM,23.7,19.4,84,30.40,7.0,Calm,Calm,-,N/A,,Clear,0,2013-01-05 14:15:00
8:35 AM,25.9,19.2,76,30.39,7.0,Calm,Calm,-,N/A,,Clear,0,2013-01-05 14:35:00
8:55 AM,27.9,18.0,66,30.39,10.0,Calm,Calm,-,N/A,,Clear,0,2013-01-05 14:55:00
9:15 AM,30.0,15.6,55,30.39,10.0,Calm,Calm,-,N/A,,Clear,0,2013-01-05 15:15:00
9:55 AM,36.3,11.1,35,30.38,10.0,South,3.5,-,N/A,,Clear,190,2013-01-05 15:55:00
10:15 AM,38.7,6.3,26,30.38,10.0,SSW,5.8,-,N/A,,Clear,210,2013-01-05 16:15:00
10:55 AM,40.1,2.5,21,30.36,10.0,SSW,5.8,-,N/A,,Clear,200,2013-01-05 16:55:00
11:15 AM,42.1,-0.4,17,30.34,10.0,SSW,6.9,-,N/A,,Clear,210,2013-01-05 17:15:00
11:35 AM,41.0,-0.9,17,30.33,10.0,South,6.9,-,N/A,,Clear,190,2013-01-05 17:35:00
11:55 AM,42.3,-3.8,14,30.32,10.0,SSW,5.8,-,N/A,,Clear,200,2013-01-05 17:55:00
12:15 PM,44.1,-8.5,11,30.29,10.0,SSE,6.9,-,N/A,,Clear,150,2013-01-05 18:15:00
12:35 PM,43.9,-12.5,9,30.28,10.0,SW,8.1,-,N/A,,Clear,230,2013-01-05 18:35:00
12:55 PM,44.2,-14.6,8,30.27,10.0,SW,6.9,-,N/A,,Clear,230,2013-01-05 18:55:00
1:15 PM,44.2,-12.3,9,30.27,10.0,SW,6.9,-,N/A,,Clear,230,2013-01-05 19:15:00
1:35 PM,43.9,-10.5,10,30.26,10.0,SSW,5.8,-,N/A,,Clear,210,2013-01-05 19:35:00
1:55 PM,44.8,-9.9,10,30.24,10.0,South,6.9,-,N/A,,Clear,190,2013-01-05 19:55:00
2:15 PM,45.5,-13.0,8,30.26,10.0,SSW,3.5,9.2,N/A,,Mostly Cloudy,210,2013-01-05 20:15:00
2:35 PM,45.0,-14.1,8,30.25,10.0,SW,8.1,-,N/A,,Overcast,220,2013-01-05 20:35:00
2:55 PM,44.2,-12.8,9,30.25,10.0,WSW,8.1,-,N/A,,Overcast,250,2013-01-05 20:55:00
3:15 PM,43.9,-8.7,11,30.25,10.0,WSW,6.9,-,N/A,,Overcast,240,2013-01-05 21:15:00
3:35 PM,43.9,-8.1,11,30.24,10.0,WSW,6.9,-,N/A,,Overcast,250,2013-01-05 21:35:00
3:55 PM,43.5,-5.6,13,30.25,10.0,SSW,3.5,-,N/A,,Overcast,210,2013-01-05 21:55:00
4:15 PM,42.8,-3.1,15,30.25,10.0,SSW,3.5,-,N/A,,Overcast,200,2013-01-05 22:15:00
5:15 PM,41.5,-2.7,16,30.25,10.0,SSW,4.6,-,N/A,,Overcast,210,2013-01-05 23:15:00
5:35 PM,41.4,-1.8,16,30.24,10.0,Calm,Calm,-,N/A,,Overcast,0,2013-01-05 23:35:00
5:55 PM,41.0,-0.8,17,30.25,10.0,SSW,3.5,-,N/A,,Overcast,210,2013-01-05 23:55:00
6:15 PM,40.8,1.6,19,30.25,10.0,SSW,3.5,-,N/A,,Overcast,210,2013-01-06 00:15:00
6:35 PM,40.5,1.4,20,30.25,10.0,SSW,3.5,-,N/A,,Overcast,210,2013-01-06 00:35:00
6:55 PM,40.5,1.2,19,30.26,10.0,SW,3.5,-,N/A,,Overcast,220,2013-01-06 00:55:00
7:15 PM,40.3,2.5,21,30.26,10.0,SSW,3.5,-,N/A,,Overcast,200,2013-01-06 01:15:00
7:35 PM,40.3,2.3,21,30.26,10.0,Calm,Calm,-,N/A,,Overcast,0,2013-01-06 01:35:00
8:15 PM,39.9,3.4,22,30.25,10.0,Calm,Calm,-,N/A,,Overcast,0,2013-01-06 02:15:00
8:35 PM,39.7,3.2,22,30.24,10.0,SSW,3.5,-,N/A,,Overcast,210,2013-01-06 02:35:00
8:55 PM,39.6,3.7,23,30.24,10.0,SSW,3.5,-,N/A,,Overcast,210,2013-01-06 02:55:00
9:15 PM,39.4,4.1,23,30.23,10.0,Calm,Calm,-,N/A,,Overcast,0,2013-01-06 03:15:00
9:35 PM,39.4,4.3,23,30.23,10.0,SW,3.5,-,N/A,,Overcast,230,2013-01-06 03:35:00
9:55 PM,39.0,6.1,26,30.23,10.0,Calm,Calm,-,N/A,,Overcast,0,2013-01-06 03:55:00
10:15 PM,39.2,5.4,25,30.23,10.0,Calm,Calm,-,N/A,,Overcast,0,2013-01-06 04:15:00
10:35 PM,39.2,5.7,25,30.22,10.0,Calm,Calm,-,N/A,,Overcast,0,2013-01-06 04:35:00
10:55 PM,38.5,8.4,29,30.22,10.0,Calm,Calm,-,N/A,,Overcast,0,2013-01-06 04:55:00
11:15 PM,38.3,8.8,30,30.22,10.0,Calm,Calm,-,N/A,,Overcast,0,2013-01-06 05:15:00
11:35 PM,38.5,8.1,28,30.21,10.0,Calm,Calm,-,N/A,,Overcast,0,2013-01-06 05:35:00
11:55 PM,38.5,7.3,28,30.21,10.0,Calm,Calm,-,N/A,,Overcast,0,2013-01-06 05:55:00